White Mountain, AK

6:14 AM AKDT on September 19, 2017 (GMT -0800)
White Mountain

Weather History for PAWM - March, 2013

Change the Weather History Date:

Friday, March 1, 2013

  Actual Average (PAOM) Record (PAOM)
Temperature  
Mean Temperature 0 °F -  
Max Temperature 10 °F 16 °F 40 °F (1938)
Min Temperature -11 °F 0 °F -36 °F (1951)
Degree Days  
Heating Degree Days 66    
Moisture  
Dew Point -10 °F    
Average Humidity 78    
Maximum Humidity 87    
Minimum Humidity 58    
Precipitation  
Precipitation 0.00 in - - ()
Sea Level Pressure  
Sea Level Pressure 30.02 in    
Wind  
Wind Speed 9 mph (North)    
Max Wind Speed 13 mph    
Max Gust Speed -    
Visibility 9 miles    
Events      
Averages and records for this station are not official NWS values.
T = Trace of Precipitation, MM = Missing Value Source: NWS Daily Summary

Daily Weather History Graph

Daily Weather History Graph

Search for Another Location

Airport or City:

Trip Planner

Search our weather history database for the weather conditions in past years. The results will help you decide how hot, cold, wet, or windy it might be!

Date:

Astronomy

Mar. 01, 2013 Rise Set
Actual Time 9:00 AM AKST 7:12 PM AKST
Civil Twilight 8:11 AM AKST 8:01 PM AKST
Nautical Twilight 7:15 AM AKST 8:57 PM AKST
Astronomical Twilight 6:17 AM AKST 9:56 PM AKST
Moon 12:33 AM AKST (3/1) 9:04 AM AKST (3/1)
Length of Visible Light 11h 49m
Length of Day
10h 11m
Waning Gibbous, 82% of the Moon is Illuminated
Mar 1
Waning Gibbous
Mar 4
Last Quarter
Mar 11
New
Mar 19
First Quarter
Mar 27
Full

Hourly Weather History & Observations

Time (AKST) Temp. Windchill Dew Point Humidity Pressure Visibility Wind Dir Wind Speed Gust Speed Precip Events Conditions
12:58 AM -6.0 °F -24.6 °F -9.9 °F 83% 29.84 in 10.0 mi North 11.5 mph - N/A   Clear
1:58 AM -7.1 °F -26.8 °F -9.9 °F 87% 29.87 in 10.0 mi NNW 12.7 mph - N/A   Clear
2:46 AM -7.6 °F -26.6 °F -11.2 °F 84% 29.85 in 10.0 mi North 11.5 mph - N/A   Mostly Cloudy
3:14 AM -7.6 °F -26.6 °F -11.2 °F 84% 29.87 in 10.0 mi North 11.5 mph - N/A   Scattered Clouds
3:58 AM -8.0 °F -27.1 °F -11.0 °F 86% 29.92 in 10.0 mi North 11.5 mph - N/A   Clear
4:58 AM -7.1 °F -25.9 °F -11.0 °F 83% 29.95 in 10.0 mi NNW 11.5 mph - N/A   Clear
5:58 AM -7.1 °F -25.9 °F -11.0 °F 83% 29.96 in 10.0 mi North 11.5 mph - N/A   Clear
6:58 AM -9.0 °F -25.2 °F -13.0 °F 83% 29.99 in 10.0 mi North 8.1 mph - N/A   Clear
7:58 AM -9.9 °F -30.5 °F -13.0 °F 86% 30.01 in 10.0 mi NNW 12.7 mph - N/A   Clear
8:28 AM -9.4 °F -26.8 °F -14.8 °F 77% 29.98 in 9.0 mi North 9.2 mph - N/A   Partly Cloudy
8:41 AM -11.2 °F -27.8 °F -14.8 °F 84% 29.98 in 10.0 mi North 8.1 mph - N/A   Mostly Cloudy
8:58 AM -9.9 °F -26.3 °F -13.0 °F 86% 30.02 in 9.0 mi NNW 8.1 mph - N/A   Overcast
9:13 AM -9.4 °F -24.3 °F -13.0 °F 84% 29.99 in 9.0 mi North 6.9 mph - N/A   Scattered Clouds
9:46 AM -7.6 °F -22.1 °F -11.2 °F 84% 30.00 in 7.0 mi North 6.9 mph - N/A   Mostly Cloudy
9:58 AM -8.0 °F -21.0 °F -11.0 °F 86% 30.04 in 9.0 mi North 5.8 mph - N/A   Overcast
10:07 AM -7.6 °F -18.8 °F -11.2 °F 84% 30.01 in 9.0 mi North 4.6 mph - N/A   Overcast
10:58 AM -4.0 °F -14.6 °F -8.0 °F 83% 30.06 in 9.0 mi North 4.6 mph - N/A   Overcast
11:15 AM -4.0 °F -16.3 °F -7.6 °F 85% 30.02 in 9.0 mi NNW 5.8 mph - N/A   Overcast
11:48 AM -0.4 °F -8.3 °F -4.0 °F 85% 30.03 in 6.0 mi NNW 3.5 mph - N/A   Scattered Clouds
11:58 AM 1.0 °F -6.7 °F -4.0 °F 79% 30.07 in 8.0 mi NNW 3.5 mph - N/A   Partly Cloudy
12:58 PM 5.0 °F - -0.9 °F 76% 30.08 in 8.0 mi Calm Calm - N/A   Clear
1:58 PM 5.0 °F -4.1 °F -6.0 °F 61% 30.09 in 9.0 mi SSW 4.6 mph - 0.00 in   Clear
2:58 PM 10.0 °F - -2.0 °F 58% 30.09 in 9.0 mi Calm Calm - N/A   Clear
4:58 PM 8.1 °F - -4.0 °F 58% 30.11 in 9.0 mi Calm Calm - N/A   Clear
5:58 PM 7.0 °F 0.1 °F -4.0 °F 61% 30.10 in 9.0 mi NNE 3.5 mph - N/A   Clear
6:58 PM 1.0 °F -11.7 °F -9.0 °F 63% 30.11 in 10.0 mi NNW 6.9 mph - N/A   Clear
7:58 PM -4.0 °F -20.2 °F -11.9 °F 69% 30.11 in 10.0 mi North 9.2 mph - N/A   Clear
8:58 PM -5.1 °F -22.5 °F -11.9 °F 72% 30.10 in 10.0 mi North 10.4 mph - N/A   Clear
9:58 PM -7.1 °F -23.9 °F -11.9 °F 79% 30.11 in 10.0 mi North 9.2 mph - N/A   Clear
11:58 PM -6.0 °F -21.5 °F -11.9 °F 75% 30.11 in 10.0 mi North 8.1 mph - N/A   Clear